Content
SEND FEEDBACK

Daily
Averages
Monthly
Summary
United States of America

BEACON, NEW YORK


Home > North America > United States > New York
Elevation: 272 feet     Latitude: 41 31N     Longitude: 073 55W

WEATHER
 
SELECT A DAY
Number of Records: 194,591;   Date Range: 1/1/95 - 8/12/14
 
SHARE

PRINT THIS DATA

[ ← Previous Day ]
WEATHER ALMANAC - NOVEMBER 9, 2013
[ Next Day → ]
[ °C ]   °F
Weather ElementAverageHighLow
Temperature43.4 °F48 °F (1:53 pm)37.9 °F (5:53 am)
Dewpoint26.1 °F28 °F (7:53 am)24.1 °F (3:53 pm)
Humidity51.2 %65 % (5:53 am)39 % (3:53 pm)
Barometer30.14 in30.25 in (8:53 am)29.97 in (11:53 pm)
Wind Speed5.3 mph10.4 mph (1:53 am)
Weather ElementAverage
Visibility10 mi
Wind DirectionS (183.9 °)

Weather ElementTotal
Precipitation---
Heating Degree Days22.1 (Base 65)
Averaged from 23 records on November 9, 2013
WEATHER CONDITIONS BREAKOUT
WIND DIRECTION BREAKOUT
WEATHER BY HOUR - NOVEMBER 9, 2013
[ °C ]   °F
Local TimeTemperatureDewpointHumidityBarometerVisibilityWind DirectionWind SpeedGust SpeedPrecipitationEventsConditions
1:53 AM39.0 °F26.1 °F60 %30.19 in10.0 miWSW (250°)10.4 mphOvercast
2:53 AM39.0 °F26.1 °F60 %30.20 in10.0 miWSW (240°)6.9 mphOvercast
3:53 AM39.0 °F26.1 °F60 %30.21 in10.0 miWSW (240°)8.1 mphOvercast
4:53 AM39.0 °F27.0 °F62 %30.22 in10.0 miWSW (250°)8.1 mphOvercast
5:53 AM37.9 °F27.0 °F65 %30.23 in10.0 miNNE (20°)3.5 mphOvercast
6:53 AM39.0 °F27.0 °F62 %30.24 in10.0 miWest (260°)8.1 mphMostly Cloudy
7:53 AM39.9 °F28.0 °F63 %30.24 in10.0 miSW (230°)3.5 mphScattered Clouds
8:53 AM41.0 °F28.0 °F60 %30.25 in10.0 miSSW (200°)3.5 mphMostly Cloudy
9:53 AM39.9 °F26.1 °F58 %30.25 in10.0 miWSW (240°)8.1 mphOvercast
10:53 AM42.1 °F27.0 °F55 %30.23 in10.0 miCalmOvercast
11:53 AM44.1 °F26.1 °F49 %30.19 in10.0 miSSW (210°)6.9 mphClear
12:53 PM46.0 °F26.1 °F46 %30.17 in10.0 miSW (230°)9.2 mphMostly Cloudy
1:53 PM48.0 °F27.0 °F44 %30.13 in10.0 miSW (220°)6.9 mphClear
2:53 PM48.0 °F25.0 °F41 %30.11 in10.0 miWSW (240°)6.9 mphClear
3:53 PM48.0 °F24.1 °F39 %30.09 in10.0 miSouth (180°)3.5 mphClear
4:53 PM46.0 °F24.1 °F42 %30.07 in10.0 miCalmClear
5:53 PM46.0 °F24.1 °F42 %30.07 in10.0 miSouth (180°)3.5 mphClear
6:53 PM46.0 °F24.1 °F42 %30.07 in10.0 miSouth (190°)4.6 mphScattered Clouds
7:53 PM45.0 °F24.1 °F44 %30.06 in10.0 miSouth (170°)3.5 mphMostly Cloudy
8:53 PM46.0 °F25.0 °F44 %30.05 in10.0 miSouth (170°)3.5 mphOvercast
9:53 PM46.9 °F26.1 °F44 %30.03 in10.0 miSSW (200°)6.9 mphOvercast
10:53 PM46.0 °F27.0 °F47 %29.99 in10.0 miSSE (160°)3.5 mphOvercast
11:53 PM46.9 °F28.0 °F48 %29.97 in10.0 miSSE (150°)3.5 mphOvercast
Hourly data recorded from KPOU, located miles away from Beacon, New York







STORIES FROM OUR PARTNERS